Crookston, MN

4:00 PM CDT on August 28, 2016 (GMT -0500)
Crookston Municipal-Kirkwood

Weather History for KCKN - February, 2013

Change the Weather History Date:

Tuesday, February 26, 2013

  Actual Average Record
Temperature  
Mean Temperature 16 °F -  
Max Temperature 21 °F 21 °F 44 °F (1998)
Min Temperature 10 °F 6 °F -18 °F (2011)
Degree Days  
Heating Degree Days 50    
Moisture  
Dew Point 17 °F    
Average Humidity 95    
Maximum Humidity 100    
Minimum Humidity 92    
Precipitation  
Precipitation 0.00 in - - ()
Sea Level Pressure  
Sea Level Pressure 30.05 in    
Wind  
Wind Speed 5 mph (South)    
Max Wind Speed 13 mph    
Max Gust Speed -    
Visibility 1 miles    
Events Fog    
Averages and records for this station are not official NWS values.
T = Trace of Precipitation, MM = Missing Value Source: NWS Daily Summary

Daily Weather History Graph

Daily Weather History Graph

Search for Another Location

Airport or City:

Trip Planner

Search our weather history database for the weather conditions in past years. The results will help you decide how hot, cold, wet, or windy it might be!

Date:

Astronomy

Feb. 26, 2013 Rise Set
Actual Time 7:12 AM CST 6:06 PM CST
Civil Twilight 6:41 AM CST 6:38 PM CST
Nautical Twilight 6:05 AM CST 7:14 PM CST
Astronomical Twilight 5:29 AM CST 7:49 PM CST
Moon 7:34 PM CST (2/26) 7:08 AM CST (2/26)
Length of Visible Light 11h 56m
Length of Day
10h 54m
Full, 99% of the Moon is Illuminated
Feb 26
Full
Mar 4
Last Quarter
Mar 11
New
Mar 19
First Quarter
Mar 27
Full

Hourly Weather History & Observations

Time (CST) Temp. Windchill Dew Point Humidity Pressure Visibility Wind Dir Wind Speed Gust Speed Precip Events Conditions
12:15 AM 19.4 °F 7.9 °F 17.6 °F 93% 30.00 in 1.0 mi South 10.4 mph - N/A   Overcast
12:34 AM 19.4 °F 7.9 °F 17.6 °F 93% 29.99 in 0.8 mi South 10.4 mph - N/A   Overcast
12:54 AM 19.4 °F 8.6 °F 17.6 °F 93% 29.99 in 0.8 mi South 9.2 mph - N/A   Overcast
1:15 AM 19.4 °F 9.5 °F 17.6 °F 93% 30.00 in 0.5 mi South 8.1 mph - N/A Fog Light Freezing Fog
1:34 AM 19.4 °F 7.9 °F 17.6 °F 93% 30.01 in 0.8 mi South 10.4 mph - N/A   Overcast
1:54 AM 19.4 °F 8.6 °F 17.6 °F 93% 30.00 in 0.8 mi South 9.2 mph - N/A   Overcast
2:15 AM 19.4 °F 7.2 °F 17.6 °F 93% 30.01 in 1.0 mi South 11.5 mph - N/A   Overcast
2:34 AM 19.4 °F 6.6 °F 17.6 °F 93% 30.02 in 0.8 mi South 12.7 mph - N/A   Overcast
2:54 AM 17.6 °F 5.7 °F 17.6 °F 100% 30.01 in 0.8 mi South 10.4 mph - N/A   Overcast
3:15 AM 17.6 °F 7.3 °F 17.6 °F 100% 30.01 in 1.0 mi South 8.1 mph - N/A   Overcast
3:34 AM 17.6 °F 5.7 °F 17.6 °F 100% 30.01 in 0.8 mi South 10.4 mph - N/A   Overcast
3:54 AM 17.6 °F 8.2 °F 17.6 °F 100% 30.01 in 0.8 mi South 6.9 mph - N/A   Overcast
4:15 AM 17.6 °F 8.2 °F 17.6 °F 100% 30.01 in 0.8 mi South 6.9 mph - N/A   Overcast
4:34 AM 17.6 °F 7.3 °F 17.6 °F 100% 30.02 in 0.8 mi South 8.1 mph - N/A   Overcast
4:54 AM 17.6 °F 6.4 °F 17.6 °F 100% 30.03 in 0.8 mi South 9.2 mph - N/A   Overcast
5:15 AM 17.6 °F 7.3 °F 17.6 °F 100% 30.03 in 0.5 mi South 8.1 mph - N/A Fog Light Freezing Fog
5:34 AM 17.6 °F 9.3 °F 15.8 °F 93% 30.03 in 0.8 mi South 5.8 mph - N/A   Overcast
5:54 AM 17.6 °F 6.4 °F 15.8 °F 93% 30.04 in 0.8 mi South 9.2 mph - N/A   Overcast
6:15 AM 17.6 °F 8.2 °F 15.8 °F 93% 30.04 in 0.8 mi South 6.9 mph - N/A   Overcast
6:34 AM 17.6 °F 9.3 °F 15.8 °F 93% 30.04 in 0.5 mi South 5.8 mph - N/A Fog Light Freezing Fog
6:54 AM 17.6 °F 10.7 °F 15.8 °F 93% 30.03 in 0.8 mi South 4.6 mph - N/A   Overcast
7:15 AM 17.6 °F - 15.8 °F 93% 30.02 in 0.5 mi Calm Calm - N/A Fog Light Freezing Fog
7:34 AM 15.8 °F 10.2 °F 15.8 °F 100% 30.02 in 0.2 mi SSW 3.5 mph - N/A Fog Light Freezing Fog
7:54 AM 15.8 °F 8.6 °F 15.8 °F 100% 30.03 in 0.2 mi South 4.6 mph - N/A Fog Light Freezing Fog
8:15 AM 15.8 °F 8.6 °F 14.0 °F 93% 30.03 in 0.2 mi South 4.6 mph - N/A Fog Light Freezing Fog
8:34 AM 15.8 °F 8.6 °F 14.0 °F 93% 30.04 in 0.2 mi SSW 4.6 mph - N/A Fog Light Freezing Fog
8:55 AM 15.8 °F 8.6 °F 14.0 °F 93% 30.04 in 0.2 mi South 4.6 mph - N/A Fog Light Freezing Fog
9:15 AM 15.8 °F - 15.8 °F 100% 30.04 in 0.2 mi Calm Calm - N/A Fog Light Freezing Fog
9:34 AM 15.8 °F - 15.8 °F 100% 30.04 in 0.2 mi Calm Calm - N/A Fog Light Freezing Fog
9:54 AM 15.8 °F 10.2 °F 15.8 °F 100% 30.05 in 0.2 mi South 3.5 mph - N/A Fog Light Freezing Fog
10:15 AM 17.6 °F - 15.8 °F 93% 30.05 in 0.5 mi Calm Calm - N/A Fog Light Freezing Fog
10:34 AM 17.6 °F 12.3 °F 15.8 °F 93% 30.05 in 0.2 mi South 3.5 mph - N/A Fog Light Freezing Fog
10:55 AM 17.6 °F - 15.8 °F 93% 30.05 in 0.2 mi Calm Calm - N/A Fog Light Freezing Fog
11:15 AM 17.6 °F - 15.8 °F 93% 30.05 in 0.8 mi Calm Calm - N/A   Overcast
11:34 AM 17.6 °F - 17.6 °F 100% 30.06 in 1.0 mi Calm Calm - N/A   Overcast
11:55 AM 19.4 °F - 17.6 °F 93% 30.06 in 1.0 mi Calm Calm - N/A   Overcast
12:15 PM 19.4 °F - 17.6 °F 93% 30.07 in 1.0 mi Calm Calm - N/A   Overcast
12:34 PM 19.4 °F - 17.6 °F 93% 30.06 in 1.5 mi Calm Calm - N/A   Overcast
12:55 PM 19.4 °F - 17.6 °F 93% 30.06 in 2.0 mi Calm Calm - N/A   Overcast
1:15 PM 19.4 °F - 19.4 °F 100% 30.06 in 2.0 mi Calm Calm - N/A   Overcast
1:34 PM 19.4 °F - 19.4 °F 100% 30.05 in 2.5 mi Calm Calm - N/A   Overcast
1:55 PM 19.4 °F - 19.4 °F 100% 30.06 in 2.5 mi Calm Calm - N/A   Overcast
2:15 PM 21.2 °F - 19.4 °F 93% 30.05 in 2.0 mi Calm Calm - N/A   Overcast
2:34 PM 21.2 °F - 19.4 °F 93% 30.05 in 3.0 mi Calm Calm - N/A   Overcast
2:55 PM 21.2 °F - 19.4 °F 93% 30.05 in 3.0 mi Calm Calm - N/A   Overcast
3:14 PM 21.2 °F - 19.4 °F 93% 30.06 in 3.0 mi Calm Calm - N/A   Overcast
3:34 PM 21.2 °F - 19.4 °F 93% 30.06 in 3.0 mi Calm Calm - N/A   Overcast
3:55 PM 21.2 °F - 19.4 °F 93% 30.06 in 2.5 mi Calm Calm - N/A   Overcast
4:14 PM 21.2 °F - 19.4 °F 93% 30.06 in 3.0 mi Calm Calm - N/A   Overcast
4:34 PM 19.4 °F - 19.4 °F 100% 30.06 in 1.5 mi Calm Calm - N/A   Overcast
4:55 PM 19.4 °F - 17.6 °F 93% 30.06 in 0.2 mi Calm Calm - N/A Fog Light Freezing Fog
5:14 PM 19.4 °F - 19.4 °F 100% 30.06 in 0.2 mi Calm Calm - N/A Fog Light Freezing Fog
5:35 PM 19.4 °F - 17.6 °F 93% 30.06 in 0.2 mi Calm Calm - N/A Fog Light Freezing Fog
5:55 PM 19.4 °F - 17.6 °F 93% 30.07 in 0.2 mi Calm Calm - N/A Fog Light Freezing Fog
6:14 PM 17.6 °F - 17.6 °F 100% 30.07 in 0.2 mi Calm Calm - N/A Fog Light Freezing Fog
6:35 PM 17.6 °F - 17.6 °F 100% 30.08 in 0.2 mi Calm Calm - N/A Fog Light Freezing Fog
6:54 PM 17.6 °F - 17.6 °F 100% 30.08 in 0.2 mi Calm Calm - N/A Fog Light Freezing Fog
7:14 PM 17.6 °F - 17.6 °F 100% 30.08 in 0.2 mi Calm Calm - N/A Fog Light Freezing Fog
7:35 PM 17.6 °F - 17.6 °F 100% 30.08 in 0.2 mi Calm Calm - N/A Fog Light Freezing Fog
7:54 PM 17.6 °F - 15.8 °F 93% 30.09 in 0.2 mi Calm Calm - N/A Fog Light Freezing Fog
8:14 PM 17.6 °F - 15.8 °F 93% 30.08 in 0.2 mi Calm Calm - N/A Fog Light Freezing Fog
8:35 PM 17.6 °F - 15.8 °F 93% 30.08 in 0.2 mi Calm Calm - N/A Fog Light Freezing Fog
8:54 PM 15.8 °F - 15.8 °F 100% 30.09 in 0.2 mi Calm Calm - N/A Fog Light Freezing Fog
9:14 PM 15.8 °F - 14.0 °F 93% 30.09 in 0.2 mi Calm Calm - N/A Fog Light Freezing Fog
9:35 PM 15.8 °F - 14.0 °F 93% 30.09 in 0.2 mi Calm Calm - N/A Fog Light Freezing Fog
9:54 PM 14.0 °F - 12.2 °F 93% 30.09 in 0.2 mi Calm Calm - N/A Fog Light Freezing Fog
10:14 PM 14.0 °F - 12.2 °F 93% 30.10 in 0.2 mi Calm Calm - N/A Fog Light Freezing Fog
10:54 PM 10.4 °F - 8.6 °F 92% 30.09 in 0.2 mi Calm Calm - N/A Fog Light Freezing Fog
11:14 PM 10.4 °F - 8.6 °F 92% 30.09 in 0.2 mi Calm Calm - N/A Fog Light Freezing Fog
11:35 PM 10.4 °F - 8.6 °F 92% 30.09 in 0.5 mi Calm Calm - N/A Fog Light Freezing Fog
11:54 PM 10.4 °F - 8.6 °F 92% 30.09 in 0.8 mi Calm Calm - N/A   Overcast